Wetterdaten: Montag, 05.10.2015
Datum Zeit Temp. A. Feuchte A. Luftdruck Regen Wind Richtung Richtung Sonnenschein ET UV Solar Taupunkt Windchill Windben Empfang
05.10.2015 00:01 9,4 C 97 % 1018,3 hPa 0,0 l/m 0,0 km/h (0 Bft) S 179 0 min 0,000 mm 0,0 UV-I 0 W/m 8,9 C 9,4 C 0,0 km/h (0 Bft) 0,00 %
05.10.2015 00:06 9,4 C 97 % 1018,3 hPa 0,0 l/m 0,0 km/h (0 Bft) S 176 0 min 0,000 mm 0,0 UV-I 0 W/m 8,9 C 9,4 C 0,0 km/h (0 Bft) 0,00 %
05.10.2015 00:11 9,3 C 97 % 1018,5 hPa 0,0 l/m 0,0 km/h (0 Bft) O-NO 72 0 min 0,000 mm 0,0 UV-I 0 W/m 8,8 C 9,3 C 0,0 km/h (0 Bft) 0,00 %
05.10.2015 00:16 9,3 C 97 % 1018,6 hPa 0,0 l/m 0,0 km/h (0 Bft) O-NO 76 0 min 0,000 mm 0,0 UV-I 0 W/m 8,8 C 9,3 C 0,0 km/h (0 Bft) 0,00 %
05.10.2015 00:21 9,3 C 97 % 1018,7 hPa 0,0 l/m 0,0 km/h (0 Bft) O-NO 76 0 min 0,000 mm 0,0 UV-I 0 W/m 8,8 C 9,3 C 0,0 km/h (0 Bft) 0,00 %
05.10.2015 00:26 9,2 C 97 % 1018,6 hPa 0,0 l/m 0,0 km/h (0 Bft) O-NO 72 0 min 0,000 mm 0,0 UV-I 0 W/m 8,7 C 9,2 C 0,0 km/h (0 Bft) 0,00 %
05.10.2015 00:31 9,2 C 97 % 1018,6 hPa 0,0 l/m 0,0 km/h (0 Bft) O 89 0 min 0,000 mm 0,0 UV-I 0 W/m 8,7 C 9,2 C 0,0 km/h (0 Bft) 0,00 %
05.10.2015 00:36 9,2 C 97 % 1018,5 hPa 0,0 l/m 0,0 km/h (0 Bft) O 89 0 min 0,000 mm 0,0 UV-I 0 W/m 8,7 C 9,2 C 0,0 km/h (0 Bft) 0,00 %
05.10.2015 00:41 9,1 C 97 % 1018,5 hPa 0,0 l/m 0,0 km/h (0 Bft) O 89 0 min 0,000 mm 0,0 UV-I 0 W/m 8,6 C 9,1 C 0,0 km/h (0 Bft) 0,00 %
05.10.2015 00:46 9,1 C 97 % 1018,4 hPa 0,0 l/m 0,0 km/h (0 Bft) O 89 0 min 0,000 mm 0,0 UV-I 0 W/m 8,6 C 9,1 C 0,0 km/h (0 Bft) 0,00 %
05.10.2015 00:51 9,1 C 97 % 1018,6 hPa 0,0 l/m 0,0 km/h (0 Bft) O 89 0 min 0,000 mm 0,0 UV-I 0 W/m 8,6 C 9,1 C 0,0 km/h (0 Bft) 0,00 %
05.10.2015 00:56 9,1 C 97 % 1018,5 hPa 0,0 l/m 0,0 km/h (0 Bft) O 89 0 min 0,000 mm 0,0 UV-I 0 W/m 8,6 C 9,1 C 0,0 km/h (0 Bft) 0,00 %
05.10.2015 01:01 9,1 C 97 % 1018,6 hPa 0,0 l/m 0,0 km/h (0 Bft) O 89 0 min 0,000 mm 0,0 UV-I 0 W/m 8,6 C 9,1 C 0,0 km/h (0 Bft) 0,00 %
05.10.2015 01:06 9,0 C 97 % 1018,6 hPa 0,0 l/m 0,0 km/h (0 Bft) S 175 0 min 0,000 mm 0,0 UV-I 0 W/m 8,5 C 9,0 C 0,0 km/h (0 Bft) 0,00 %
05.10.2015 01:11 9,0 C 97 % 1018,6 hPa 0,0 l/m 0,0 km/h (0 Bft) O 83 0 min 0,000 mm 0,0 UV-I 0 W/m 8,5 C 9,0 C 0,0 km/h (0 Bft) 0,00 %
05.10.2015 01:16 9,0 C 97 % 1018,3 hPa 0,0 l/m 0,0 km/h (0 Bft) S-SW 211 0 min 0,000 mm 0,0 UV-I 0 W/m 8,5 C 9,0 C 0,0 km/h (0 Bft) 0,00 %
05.10.2015 01:21 9,0 C 97 % 1018,4 hPa 0,0 l/m 0,0 km/h (0 Bft) S-SW 211 0 min 0,000 mm 0,0 UV-I 0 W/m 8,5 C 9,0 C 0,0 km/h (0 Bft) 0,00 %
05.10.2015 01:26 9,0 C 97 % 1018,4 hPa 0,0 l/m 0,0 km/h (0 Bft) S-SW 211 0 min 0,000 mm 0,0 UV-I 0 W/m 8,5 C 9,0 C 0,0 km/h (0 Bft) 0,00 %
05.10.2015 01:31 9,0 C 97 % 1018,4 hPa 0,0 l/m 0,0 km/h (0 Bft) S-SW 211 0 min 0,000 mm 0,0 UV-I 0 W/m 8,5 C 9,0 C 0,0 km/h (0 Bft) 0,00 %
05.10.2015 01:36 9,0 C 97 % 1018,2 hPa 0,0 l/m 0,0 km/h (0 Bft) S-SW 211 0 min 0,000 mm 0,0 UV-I 0 W/m 8,5 C 9,0 C 0,0 km/h (0 Bft) 0,00 %
05.10.2015 01:41 9,0 C 98 % 1018,3 hPa 0,0 l/m 0,0 km/h (0 Bft) S-SW 211 0 min 0,000 mm 0,0 UV-I 0 W/m 8,7 C 9,0 C 0,0 km/h (0 Bft) 0,00 %
05.10.2015 01:46 8,9 C 98 % 1018,2 hPa 0,0 l/m 0,0 km/h (0 Bft) S-SW 211 0 min 0,000 mm 0,0 UV-I 0 W/m 8,6 C 8,9 C 0,0 km/h (0 Bft) 0,00 %
05.10.2015 01:51 8,9 C 98 % 1018,2 hPa 0,0 l/m 0,0 km/h (0 Bft) S-SW 211 0 min 0,000 mm 0,0 UV-I 0 W/m 8,6 C 8,9 C 0,0 km/h (0 Bft) 0,00 %
05.10.2015 01:56 8,8 C 98 % 1018,2 hPa 0,0 l/m 0,0 km/h (0 Bft) S-SW 211 0 min 0,000 mm 0,0 UV-I 0 W/m 8,5 C 8,8 C 0,0 km/h (0 Bft) 0,00 %
05.10.2015 02:01 8,7 C 98 % 1018,0 hPa 0,0 l/m 0,0 km/h (0 Bft) S-SW 211 0 min 0,000 mm 0,0 UV-I 0 W/m 8,4 C 8,7 C 0,0 km/h (0 Bft) 0,00 %
05.10.2015 02:06 8,6 C 98 % 1018,0 hPa 0,0 l/m 0,0 km/h (0 Bft) S-SW 211 0 min 0,000 mm 0,0 UV-I 0 W/m 8,3 C 8,6 C 0,0 km/h (0 Bft) 0,00 %
05.10.2015 02:11 8,6 C 98 % 1018,0 hPa 0,0 l/m 0,0 km/h (0 Bft) S-SW 211 0 min 0,000 mm 0,0 UV-I 0 W/m 8,3 C 8,6 C 0,0 km/h (0 Bft) 0,00 %
05.10.2015 02:16 8,5 C 98 % 1018,0 hPa 0,0 l/m 0,0 km/h (0 Bft) S-SW 211 0 min 0,000 mm 0,0 UV-I 0 W/m 8,2 C 8,5 C 0,0 km/h (0 Bft) 0,00 %
05.10.2015 02:21 8,4 C 98 % 1017,8 hPa 0,0 l/m 0,0 km/h (0 Bft) S-SW 211 0 min 0,000 mm 0,0 UV-I 0 W/m 8,1 C 8,4 C 0,0 km/h (0 Bft) 0,00 %
05.10.2015 02:26 8,3 C 98 % 1017,8 hPa 0,0 l/m 0,0 km/h (0 Bft) S-SW 211 0 min 0,000 mm 0,0 UV-I 0 W/m 8,0 C 8,3 C 0,0 km/h (0 Bft) 0,00 %
05.10.2015 02:31 8,3 C 98 % 1017,9 hPa 0,0 l/m 0,0 km/h (0 Bft) S-SW 211 0 min 0,000 mm 0,0 UV-I 0 W/m 8,0 C 8,3 C 0,0 km/h (0 Bft) 0,00 %
05.10.2015 02:36 8,2 C 99 % 1017,7 hPa 0,0 l/m 0,0 km/h (0 Bft) S-SW 211 0 min 0,000 mm 0,0 UV-I 0 W/m 8,1 C 8,2 C 0,0 km/h (0 Bft) 0,00 %
05.10.2015 02:41 8,1 C 99 % 1017,6 hPa 0,0 l/m 0,0 km/h (0 Bft) S-SW 211 0 min 0,000 mm 0,0 UV-I 0 W/m 8,0 C 8,1 C 0,0 km/h (0 Bft) 0,00 %
05.10.2015 02:46 8,0 C 99 % 1017,6 hPa 0,0 l/m 0,0 km/h (0 Bft) S-SW 211 0 min 0,000 mm 0,0 UV-I 0 W/m 7,9 C 8,0 C 0,0 km/h (0 Bft) 0,00 %
05.10.2015 02:51 8,0 C 99 % 1017,6 hPa 0,0 l/m 0,0 km/h (0 Bft) S-SW 211 0 min 0,000 mm 0,0 UV-I 0 W/m 7,9 C 8,0 C 0,0 km/h (0 Bft) 0,00 %
05.10.2015 02:56 7,9 C 99 % 1017,5 hPa 0,0 l/m 0,0 km/h (0 Bft) S-SW 211 0 min 0,000 mm 0,0 UV-I 0 W/m 7,8 C 7,9 C 0,0 km/h (0 Bft) 0,00 %
05.10.2015 03:01 7,8 C 99 % 1017,6 hPa 0,0 l/m 0,0 km/h (0 Bft) S-SW 211 0 min 0,000 mm 0,0 UV-I 0 W/m 7,7 C 7,8 C 0,0 km/h (0 Bft) 0,00 %
05.10.2015 03:06 7,6 C 99 % 1017,6 hPa 0,0 l/m 0,0 km/h (0 Bft) S-SW 211 0 min 0,000 mm 0,0 UV-I 0 W/m 7,5 C 7,6 C 0,0 km/h (0 Bft) 0,00 %
05.10.2015 03:11 7,5 C 99 % 1017,7 hPa 0,0 l/m 0,0 km/h (0 Bft) S-SW 211 0 min 0,000 mm 0,0 UV-I 0 W/m 7,4 C 7,5 C 0,0 km/h (0 Bft) 0,00 %
05.10.2015 03:16 7,4 C 97 % 1017,6 hPa 0,0 l/m 0,0 km/h (0 Bft) S-SW 211 0 min 0,000 mm 0,0 UV-I 0 W/m 7,0 C 7,4 C 0,0 km/h (0 Bft) 0,00 %
05.10.2015 03:21 7,2 C 97 % 1017,5 hPa 0,0 l/m 0,0 km/h (0 Bft) S-SW 211 0 min 0,000 mm 0,0 UV-I 0 W/m 6,8 C 7,2 C 0,0 km/h (0 Bft) 0,00 %
05.10.2015 03:26 7,1 C 97 % 1017,8 hPa 0,0 l/m 0,0 km/h (0 Bft) S-SW 211 0 min 0,000 mm 0,0 UV-I 0 W/m 6,7 C 7,1 C 0,0 km/h (0 Bft) 0,00 %
05.10.2015 03:31 7,0 C 97 % 1017,8 hPa 0,0 l/m 0,0 km/h (0 Bft) S-SW 211 0 min 0,000 mm 0,0 UV-I 0 W/m 6,6 C 7,0 C 0,0 km/h (0 Bft) 0,00 %
05.10.2015 03:36 6,9 C 97 % 1017,7 hPa 0,0 l/m 0,0 km/h (0 Bft) S-SW 211 0 min 0,000 mm 0,0 UV-I 0 W/m 6,5 C 6,9 C 0,0 km/h (0 Bft) 0,00 %
05.10.2015 03:41 6,7 C 97 % 1017,7 hPa 0,0 l/m 0,0 km/h (0 Bft) S-SW 211 0 min 0,000 mm 0,0 UV-I 0 W/m 6,3 C 6,7 C 0,0 km/h (0 Bft) 0,00 %
05.10.2015 03:46 6,6 C 97 % 1017,8 hPa 0,0 l/m 0,0 km/h (0 Bft) S-SW 211 0 min 0,000 mm 0,0 UV-I 0 W/m 6,2 C 6,6 C 0,0 km/h (0 Bft) 0,00 %
05.10.2015 03:51 6,5 C 97 % 1017,9 hPa 0,0 l/m 0,0 km/h (0 Bft) S-SW 211 0 min 0,000 mm 0,0 UV-I 0 W/m 6,1 C 6,5 C 0,0 km/h (0 Bft) 0,00 %
05.10.2015 03:56 6,4 C 97 % 1017,8 hPa 0,0 l/m 0,0 km/h (0 Bft) S-SW 205 0 min 0,000 mm 0,0 UV-I 0 W/m 6,0 C 6,4 C 0,0 km/h (0 Bft) 0,00 %
05.10.2015 04:01 6,3 C 97 % 1018,1 hPa 0,0 l/m 0,0 km/h (0 Bft) S-SW 202 0 min 0,000 mm 0,0 UV-I 0 W/m 5,9 C 6,3 C 0,0 km/h (0 Bft) 0,00 %
05.10.2015 04:06 6,3 C 97 % 1018,1 hPa 0,0 l/m 0,0 km/h (0 Bft) NO 38 0 min 0,000 mm 0,0 UV-I 0 W/m 5,9 C 6,3 C 0,0 km/h (0 Bft) 0,00 %
05.10.2015 04:11 6,4 C 97 % 1017,9 hPa 0,0 l/m 0,0 km/h (0 Bft) S-SW 192 0 min 0,000 mm 0,0 UV-I 0 W/m 6,0 C 6,4 C 0,0 km/h (0 Bft) 0,00 %
05.10.2015 04:16 6,5 C 97 % 1017,9 hPa 0,0 l/m 0,0 km/h (0 Bft) S 182 0 min 0,000 mm 0,0 UV-I 0 W/m 6,1 C 6,5 C 0,0 km/h (0 Bft) 0,00 %
05.10.2015 04:21 6,5 C 97 % 1017,7 hPa 0,0 l/m 0,0 km/h (0 Bft) S-SW 203 0 min 0,000 mm 0,0 UV-I 0 W/m 6,1 C 6,5 C 0,0 km/h (0 Bft) 0,00 %
05.10.2015 04:26 6,5 C 97 % 1017,8 hPa 0,0 l/m 0,0 km/h (0 Bft) SO 132 0 min 0,000 mm 0,0 UV-I 0 W/m 6,1 C 6,5 C 0,0 km/h (0 Bft) 0,00 %
05.10.2015 04:31 6,5 C 97 % 1017,6 hPa 0,0 l/m 0,0 km/h (0 Bft) O-NO 66 0 min 0,000 mm 0,0 UV-I 0 W/m 6,1 C 6,5 C 0,0 km/h (0 Bft) 0,00 %
05.10.2015 04:36 6,5 C 97 % 1017,6 hPa 0,0 l/m 0,0 km/h (0 Bft) O-NO 61 0 min 0,000 mm 0,0 UV-I 0 W/m 6,1 C 6,5 C 0,0 km/h (0 Bft) 0,00 %
05.10.2015 04:41 6,5 C 97 % 1017,5 hPa 0,0 l/m 0,0 km/h (0 Bft) O-NO 62 0 min 0,000 mm 0,0 UV-I 0 W/m 6,1 C 6,5 C 0,0 km/h (0 Bft) 0,00 %
05.10.2015 04:46 6,5 C 97 % 1017,5 hPa 0,0 l/m 0,0 km/h (0 Bft) O-NO 63 0 min 0,000 mm 0,0 UV-I 0 W/m 6,1 C 6,5 C 0,0 km/h (0 Bft) 0,00 %
05.10.2015 04:51 6,5 C 97 % 1017,6 hPa 0,0 l/m 0,0 km/h (0 Bft) S 173 0 min 0,000 mm 0,0 UV-I 0 W/m 6,1 C 6,5 C 0,0 km/h (0 Bft) 0,00 %
05.10.2015 04:56 6,5 C 97 % 1017,5 hPa 0,0 l/m 0,0 km/h (0 Bft) O 79 0 min 0,000 mm 0,0 UV-I 0 W/m 6,1 C 6,5 C 0,0 km/h (0 Bft) 0,00 %
05.10.2015 05:01 6,5 C 97 % 1017,6 hPa 0,0 l/m 0,0 km/h (0 Bft) O 87 0 min 0,000 mm 0,0 UV-I 0 W/m 6,1 C 6,5 C 0,0 km/h (0 Bft) 0,00 %
05.10.2015 05:06 6,4 C 97 % 1017,8 hPa 0,0 l/m 0,0 km/h (0 Bft) S 174 0 min 0,000 mm 0,0 UV-I 0 W/m 6,0 C 6,4 C 0,0 km/h (0 Bft) 0,00 %
05.10.2015 05:11 6,3 C 97 % 1018,0 hPa 0,0 l/m 0,0 km/h (0 Bft) SO 130 0 min 0,000 mm 0,0 UV-I 0 W/m 5,9 C 6,3 C 0,0 km/h (0 Bft) 0,00 %
05.10.2015 05:16 6,3 C 97 % 1017,9 hPa 0,0 l/m 1,4 km/h (1 Bft) S 185 0 min 0,000 mm 0,0 UV-I 0 W/m 5,9 C 6,3 C 4,0 km/h (1 Bft) 0,00 %
05.10.2015 05:21 6,2 C 97 % 1018,1 hPa 0,0 l/m 0,0 km/h (0 Bft) O-NO 61 0 min 0,000 mm 0,0 UV-I 0 W/m 5,8 C 6,2 C 0,0 km/h (0 Bft) 0,00 %
05.10.2015 05:26 6,1 C 97 % 1017,8 hPa 0,0 l/m 0,0 km/h (0 Bft) S 174 0 min 0,000 mm 0,0 UV-I 0 W/m 5,7 C 6,1 C 0,0 km/h (0 Bft) 0,00 %
05.10.2015 05:31 6,0 C 97 % 1018,0 hPa 0,0 l/m 0,0 km/h (0 Bft) S 174 0 min 0,000 mm 0,0 UV-I 0 W/m 5,6 C 6,0 C 0,0 km/h (0 Bft) 0,00 %
05.10.2015 05:36 6,0 C 97 % 1018,2 hPa 0,0 l/m 0,0 km/h (0 Bft) O-SO 110 0 min 0,000 mm 0,0 UV-I 0 W/m 5,6 C 6,0 C 0,0 km/h (0 Bft) 0,00 %
05.10.2015 05:41 6,0 C 97 % 1018,4 hPa 0,0 l/m 0,0 km/h (0 Bft) S 176 0 min 0,000 mm 0,0 UV-I 0 W/m 5,6 C 6,0 C 0,0 km/h (0 Bft) 0,00 %
05.10.2015 05:46 6,0 C 97 % 1018,3 hPa 0,0 l/m 0,0 km/h (0 Bft) O-SO 121 0 min 0,000 mm 0,0 UV-I 0 W/m 5,6 C 6,0 C 0,0 km/h (0 Bft) 0,00 %
05.10.2015 05:51 5,9 C 98 % 1018,2 hPa 0,0 l/m 0,0 km/h (0 Bft) O 89 0 min 0,000 mm 0,0 UV-I 0 W/m 5,6 C 5,9 C 0,0 km/h (0 Bft) 0,00 %
05.10.2015 05:56 5,8 C 98 % 1018,3 hPa 0,0 l/m 0,0 km/h (0 Bft) S 180 0 min 0,000 mm 0,0 UV-I 0 W/m 5,5 C 5,8 C 0,0 km/h (0 Bft) 0,00 %
05.10.2015 06:01 5,7 C 98 % 1018,3 hPa 0,0 l/m 0,0 km/h (0 Bft) O-SO 118 0 min 0,000 mm 0,0 UV-I 0 W/m 5,4 C 5,7 C 0,0 km/h (0 Bft) 0,00 %
05.10.2015 06:06 5,7 C 98 % 1018,3 hPa 0,0 l/m 0,7 km/h (0 Bft) S-SW 199 0 min 0,000 mm 0,0 UV-I 0 W/m 5,4 C 5,7 C 4,0 km/h (1 Bft) 0,00 %
05.10.2015 06:11 5,6 C 98 % 1018,3 hPa 0,0 l/m 1,4 km/h (1 Bft) S-SW 211 0 min 0,000 mm 0,0 UV-I 0 W/m 5,3 C 5,6 C 4,0 km/h (1 Bft) 0,00 %
05.10.2015 06:16 5,6 C 98 % 1018,3 hPa 0,0 l/m 0,4 km/h (0 Bft) S-SO 152 0 min 0,000 mm 0,0 UV-I 0 W/m 5,3 C 5,6 C 4,0 km/h (1 Bft) 0,00 %
05.10.2015 06:21 5,5 C 98 % 1018,3 hPa 0,0 l/m 0,0 km/h (0 Bft) S 183 0 min 0,000 mm 0,0 UV-I 0 W/m 5,2 C 5,5 C 0,0 km/h (0 Bft) 0,00 %
05.10.2015 06:26 5,5 C 98 % 1018,2 hPa 0,0 l/m 0,0 km/h (0 Bft) S 178 0 min 0,000 mm 0,0 UV-I 0 W/m 5,2 C 5,5 C 0,0 km/h (0 Bft) 0,00 %
05.10.2015 06:31 5,4 C 98 % 1018,3 hPa 0,0 l/m 0,0 km/h (0 Bft) O 99 0 min 0,000 mm 0,0 UV-I 0 W/m 5,1 C 5,4 C 0,0 km/h (0 Bft) 0,00 %
05.10.2015 06:36 5,3 C 98 % 1018,3 hPa 0,0 l/m 0,0 km/h (0 Bft) O 85 0 min 0,000 mm 0,0 UV-I 0 W/m 5,0 C 5,3 C 0,0 km/h (0 Bft) 0,00 %
05.10.2015 06:41 5,2 C 98 % 1018,3 hPa 0,0 l/m 0,0 km/h (0 Bft) O 86 0 min 0,000 mm 0,0 UV-I 0 W/m 4,9 C 5,2 C 0,0 km/h (0 Bft) 0,00 %
05.10.2015 06:46 5,2 C 98 % 1018,3 hPa 0,0 l/m 0,0 km/h (0 Bft) O-NO 64 0 min 0,000 mm 0,0 UV-I 0 W/m 4,9 C 5,2 C 0,0 km/h (0 Bft) 0,00 %
05.10.2015 06:51 5,1 C 98 % 1018,3 hPa 0,0 l/m 0,0 km/h (0 Bft) S 180 0 min 0,000 mm 0,0 UV-I 0 W/m 4,8 C 5,1 C 0,0 km/h (0 Bft) 0,00 %
05.10.2015 06:56 5,1 C 98 % 1018,3 hPa 0,0 l/m 0,7 km/h (0 Bft) S 173 0 min 0,000 mm 0,0 UV-I 0 W/m 4,8 C 5,1 C 4,0 km/h (1 Bft) 0,00 %
05.10.2015 07:01 5,0 C 98 % 1018,2 hPa 0,0 l/m 0,0 km/h (0 Bft) S-SW 195 0 min 0,000 mm 0,0 UV-I 0 W/m 4,7 C 5,0 C 0,0 km/h (0 Bft) 0,00 %
05.10.2015 07:06 4,9 C 99 % 1018,3 hPa 0,0 l/m 0,0 km/h (0 Bft) O-SO 119 0 min 0,000 mm 0,0 UV-I 0 W/m 4,8 C 4,9 C 0,0 km/h (0 Bft) 0,00 %
05.10.2015 07:11 4,9 C 99 % 1018,2 hPa 0,0 l/m 0,0 km/h (0 Bft) O-NO 78 0 min 0,000 mm 0,0 UV-I 0 W/m 4,8 C 4,9 C 0,0 km/h (0 Bft) 0,00 %
05.10.2015 07:16 4,8 C 99 % 1018,2 hPa 0,0 l/m 0,0 km/h (0 Bft) S 184 0 min 0,000 mm 0,0 UV-I 5 W/m 4,7 C 4,8 C 0,0 km/h (0 Bft) 0,00 %
05.10.2015 07:21 4,7 C 99 % 1018,1 hPa 0,0 l/m 0,0 km/h (0 Bft) S-SW 210 0 min 0,000 mm 0,0 UV-I 10 W/m 4,6 C 4,7 C 0,0 km/h (0 Bft) 0,00 %
05.10.2015 07:26 4,7 C 99 % 1018,1 hPa 0,0 l/m 0,0 km/h (0 Bft) O 80 0 min 0,000 mm 0,0 UV-I 20 W/m 4,6 C 4,7 C 0,0 km/h (0 Bft) 0,00 %
05.10.2015 07:31 4,6 C 99 % 1018,1 hPa 0,0 l/m 2,9 km/h (1 Bft) S 189 0 min 0,000 mm 0,0 UV-I 26 W/m 4,5 C 4,6 C 4,0 km/h (1 Bft) 0,00 %
05.10.2015 07:36 4,6 C 99 % 1018,2 hPa 0,0 l/m 0,0 km/h (0 Bft) NO 55 0 min 0,000 mm 0,0 UV-I 35 W/m 4,5 C 4,6 C 0,0 km/h (0 Bft) 0,00 %
05.10.2015 07:41 4,6 C 99 % 1018,1 hPa 0,0 l/m 0,0 km/h (0 Bft) S-SW 201 0 min 0,000 mm 0,0 UV-I 40 W/m 4,5 C 4,6 C 0,0 km/h (0 Bft) 0,00 %
05.10.2015 07:46 4,6 C 99 % 1018,1 hPa 0,0 l/m 0,0 km/h (0 Bft) W-SW 254 0 min 0,000 mm 0,0 UV-I 45 W/m 4,5 C 4,6 C 0,0 km/h (0 Bft) 0,00 %
05.10.2015 07:51 4,6 C 99 % 1018,1 hPa 0,0 l/m 0,0 km/h (0 Bft) NO 51 0 min 0,000 mm 0,0 UV-I 58 W/m 4,5 C 4,6 C 0,0 km/h (0 Bft) 0,00 %
05.10.2015 07:56 4,7 C 99 % 1018,2 hPa 0,0 l/m 0,0 km/h (0 Bft) S 183 0 min 0,000 mm 0,0 UV-I 59 W/m 4,6 C 4,7 C 0,0 km/h (0 Bft) 0,00 %
05.10.2015 08:01 4,8 C 99 % 1018,2 hPa 0,0 l/m 0,0 km/h (0 Bft) SO 141 0 min 0,000 mm 0,0 UV-I 65 W/m 4,7 C 4,8 C 0,0 km/h (0 Bft) 0,00 %
05.10.2015 08:06 4,9 C 98 % 1018,1 hPa 0,0 l/m 0,0 km/h (0 Bft) O-SO 110 0 min 0,000 mm 0,0 UV-I 76 W/m 4,6 C 4,9 C 0,0 km/h (0 Bft) 0,00 %
05.10.2015 08:11 4,9 C 98 % 1018,0 hPa 0,0 l/m 0,0 km/h (0 Bft) N-NO 27 0 min 0,000 mm 0,0 UV-I 84 W/m 4,6 C 4,9 C 0,0 km/h (0 Bft) 0,00 %
05.10.2015 08:16 5,0 C 98 % 1018,0 hPa 0,0 l/m 0,0 km/h (0 Bft) O-NO 73 0 min 0,000 mm 0,0 UV-I 92 W/m 4,7 C 5,0 C 0,0 km/h (0 Bft) 0,00 %
05.10.2015 08:21 5,3 C 98 % 1018,2 hPa 0,0 l/m 0,0 km/h (0 Bft) O-NO 76 0 min 0,000 mm 0,0 UV-I 100 W/m 5,0 C 5,3 C 0,0 km/h (0 Bft) 0,00 %
05.10.2015 08:26 5,5 C 98 % 1018,0 hPa 0,0 l/m 0,0 km/h (0 Bft) O-NO 58 0 min 0,000 mm 1,0 UV-I 109 W/m 5,2 C 5,5 C 0,0 km/h (0 Bft) 0,00 %
05.10.2015 08:31 5,7 C 98 % 1017,9 hPa 0,0 l/m 0,0 km/h (0 Bft) S-SW 205 0 min 0,000 mm 1,0 UV-I 106 W/m 5,4 C 5,7 C 0,0 km/h (0 Bft) 0,00 %
05.10.2015 08:36 5,8 C 97 % 1018,0 hPa 0,0 l/m 0,0 km/h (0 Bft) S-SW 212 0 min 0,000 mm 1,0 UV-I 120 W/m 5,4 C 5,8 C 0,0 km/h (0 Bft) 0,00 %
05.10.2015 08:41 5,9 C 97 % 1018,1 hPa 0,0 l/m 0,0 km/h (0 Bft) O 96 0 min 0,000 mm 1,0 UV-I 131 W/m 5,5 C 5,9 C 0,0 km/h (0 Bft) 0,00 %
05.10.2015 08:46 6,1 C 97 % 1018,1 hPa 0,0 l/m 0,0 km/h (0 Bft) S 177 0 min 0,000 mm 1,0 UV-I 93 W/m 5,7 C 6,1 C 0,0 km/h (0 Bft) 0,00 %
05.10.2015 08:51 6,2 C 97 % 1018,1 hPa 0,0 l/m 2,9 km/h (1 Bft) S-SW 204 0 min 0,000 mm 1,0 UV-I 94 W/m 5,8 C 6,2 C 4,0 km/h (1 Bft) 0,00 %
05.10.2015 08:56 6,1 C 97 % 1018,2 hPa 0,0 l/m 0,0 km/h (0 Bft) O 86 0 min 0,000 mm 1,0 UV-I 135 W/m 5,7 C 6,1 C 0,0 km/h (0 Bft) 0,00 %
05.10.2015 09:01 6,2 C 97 % 1018,3 hPa 0,0 l/m 0,0 km/h (0 Bft) O 83 0 min 0,000 mm 1,0 UV-I 132 W/m 5,8 C 6,2 C 0,0 km/h (0 Bft) 0,00 %
05.10.2015 09:06 6,4 C 97 % 1018,4 hPa 0,0 l/m 0,0 km/h (0 Bft) S 189 0 min 0,000 mm 1,0 UV-I 130 W/m 6,0 C 6,4 C 0,0 km/h (0 Bft) 0,00 %
05.10.2015 09:11 6,6 C 97 % 1018,4 hPa 0,0 l/m 0,0 km/h (0 Bft) NO 53 0 min 0,000 mm 1,0 UV-I 147 W/m 6,2 C 6,6 C 0,0 km/h (0 Bft) 0,00 %
05.10.2015 09:16 6,8 C 99 % 1018,3 hPa 0,0 l/m 0,0 km/h (0 Bft) O-NO 67 0 min 0,000 mm 1,0 UV-I 157 W/m 6,7 C 6,8 C 0,0 km/h (0 Bft) 0,00 %
05.10.2015 09:21 7,1 C 99 % 1018,3 hPa 0,0 l/m 0,0 km/h (0 Bft) O 95 0 min 0,000 mm 1,0 UV-I 170 W/m 7,0 C 7,1 C 0,0 km/h (0 Bft) 0,00 %
05.10.2015 09:26 7,4 C 99 % 1018,4 hPa 0,0 l/m 0,0 km/h (0 Bft) N-NO 24 0 min 0,000 mm 1,0 UV-I 171 W/m 7,3 C 7,4 C 0,0 km/h (0 Bft) 0,00 %
05.10.2015 09:31 7,6 C 99 % 1018,5 hPa 0,0 l/m 0,0 km/h (0 Bft) S 183 0 min 0,000 mm 1,0 UV-I 174 W/m 7,5 C 7,6 C 0,0 km/h (0 Bft) 0,00 %
05.10.2015 09:36 7,8 C 99 % 1018,3 hPa 0,0 l/m 0,0 km/h (0 Bft) S 183 0 min 0,000 mm 1,0 UV-I 183 W/m 7,7 C 7,8 C 0,0 km/h (0 Bft) 0,00 %
05.10.2015 09:41 8,1 C 99 % 1018,4 hPa 0,0 l/m 0,0 km/h (0 Bft) S 183 0 min 0,000 mm 1,0 UV-I 184 W/m 8,0 C 8,1 C 0,0 km/h (0 Bft) 0,00 %
05.10.2015 09:46 8,3 C 99 % 1018,4 hPa 0,0 l/m 0,0 km/h (0 Bft) S 183 0 min 0,000 mm 1,0 UV-I 177 W/m 8,2 C 8,3 C 0,0 km/h (0 Bft) 0,00 %
05.10.2015 09:51 8,4 C 99 % 1018,5 hPa 0,0 l/m 0,0 km/h (0 Bft) S 183 0 min 0,000 mm 1,0 UV-I 185 W/m 8,3 C 8,4 C 0,0 km/h (0 Bft) 0,00 %
05.10.2015 09:56 8,6 C 99 % 1018,3 hPa 0,0 l/m 0,0 km/h (0 Bft) S 181 0 min 0,000 mm 1,0 UV-I 179 W/m 8,5 C 8,6 C 0,0 km/h (0 Bft) 0,00 %
05.10.2015 10:01 8,8 C 99 % 1018,4 hPa 0,0 l/m 0,0 km/h (0 Bft) S 181 0 min 0,000 mm 1,0 UV-I 176 W/m 8,7 C 8,8 C 0,0 km/h (0 Bft) 0,00 %
05.10.2015 10:06 8,8 C 99 % 1018,4 hPa 0,0 l/m 0,0 km/h (0 Bft) S 181 0 min 0,000 mm 1,0 UV-I 193 W/m 8,7 C 8,8 C 0,0 km/h (0 Bft) 0,00 %
05.10.2015 10:11 8,8 C 99 % 1018,1 hPa 0,0 l/m 0,0 km/h (0 Bft) O-NO 65 0 min 0,000 mm 1,0 UV-I 217 W/m 8,7 C 8,8 C 0,0 km/h (0 Bft) 0,00 %
05.10.2015 10:16 8,8 C 98 % 1018,1 hPa 0,0 l/m 0,0 km/h (0 Bft) O 81 0 min 0,000 mm 1,0 UV-I 226 W/m 8,5 C 8,8 C 0,0 km/h (0 Bft) 0,00 %
05.10.2015 10:21 9,0 C 97 % 1017,9 hPa 0,0 l/m 0,0 km/h (0 Bft) O-NO 75 0 min 0,000 mm 1,0 UV-I 246 W/m 8,5 C 9,0 C 0,0 km/h (0 Bft) 0,00 %
05.10.2015 10:26 9,2 C 97 % 1018,0 hPa 0,0 l/m 0,0 km/h (0 Bft) O-NO 75 0 min 0,000 mm 1,0 UV-I 253 W/m 8,7 C 9,2 C 0,0 km/h (0 Bft) 0,00 %
05.10.2015 10:31 9,5 C 97 % 1018,1 hPa 0,0 l/m 0,0 km/h (0 Bft) O-SO 116 0 min 0,000 mm 1,0 UV-I 236 W/m 9,0 C 9,5 C 0,0 km/h (0 Bft) 0,00 %
05.10.2015 10:36 9,9 C 96 % 1018,1 hPa 0,0 l/m 0,0 km/h (0 Bft) O-SO 116 0 min 0,000 mm 1,0 UV-I 232 W/m 9,3 C 9,9 C 0,0 km/h (0 Bft) 0,00 %
05.10.2015 10:41 10,3 C 95 % 1018,1 hPa 0,0 l/m 0,0 km/h (0 Bft) NO 53 0 min 0,000 mm 1,0 UV-I 228 W/m 9,5 C 10,3 C 0,0 km/h (0 Bft) 0,00 %
05.10.2015 10:46 10,4 C 94 % 1018,1 hPa 0,0 l/m 0,0 km/h (0 Bft) N-NW 344 0 min 0,000 mm 1,0 UV-I 231 W/m 9,5 C 10,4 C 0,0 km/h (0 Bft) 0,00 %
05.10.2015 10:51 10,4 C 92 % 1018,1 hPa 0,0 l/m 0,0 km/h (0 Bft) N-NO 22 0 min 0,000 mm 1,0 UV-I 223 W/m 9,2 C 10,4 C 0,0 km/h (0 Bft) 0,00 %
05.10.2015 10:56 10,1 C 92 % 1018,2 hPa 0,0 l/m 0,0 km/h (0 Bft) N 3 0 min 0,000 mm 1,0 UV-I 218 W/m 8,9 C 10,1 C 0,0 km/h (0 Bft) 0,00 %
05.10.2015 11:01 9,9 C 90 % 1018,2 hPa 0,0 l/m 0,0 km/h (0 Bft) NO 55 0 min 0,000 mm 1,0 UV-I 243 W/m 8,3 C 9,9 C 0,0 km/h (0 Bft) 0,00 %
05.10.2015 11:06 9,9 C 90 % 1018,1 hPa 0,0 l/m 4,0 km/h (1 Bft) O 91 0 min 0,000 mm 1,0 UV-I 257 W/m 8,3 C 9,9 C 7,9 km/h (2 Bft) 0,00 %
05.10.2015 11:11 10,0 C 89 % 1018,0 hPa 0,0 l/m 0,0 km/h (0 Bft) O-NO 57 0 min 0,000 mm 1,0 UV-I 238 W/m 8,3 C 10,0 C 0,0 km/h (0 Bft) 0,00 %
05.10.2015 11:16 10,0 C 89 % 1018,1 hPa 0,0 l/m 0,0 km/h (0 Bft) NO 48 0 min 0,000 mm 1,0 UV-I 236 W/m 8,3 C 10,0 C 0,0 km/h (0 Bft) 0,00 %
05.10.2015 11:21 10,1 C 89 % 1018,1 hPa 0,0 l/m 0,0 km/h (0 Bft) O-NO 67 0 min 0,000 mm 1,0 UV-I 236 W/m 8,4 C 10,1 C 0,0 km/h (0 Bft) 0,00 %
05.10.2015 11:26 10,1 C 88 % 1018,0 hPa 0,0 l/m 0,0 km/h (0 Bft) NO 43 0 min 0,000 mm 1,0 UV-I 263 W/m 8,2 C 10,1 C 0,0 km/h (0 Bft) 0,00 %
05.10.2015 11:31 10,0 C 88 % 1017,9 hPa 0,0 l/m 0,0 km/h (0 Bft) NO 40 0 min 0,000 mm 1,0 UV-I 256 W/m 8,1 C 10,0 C 0,0 km/h (0 Bft) 0,00 %
05.10.2015 11:36 10,2 C 88 % 1017,8 hPa 0,0 l/m 0,0 km/h (0 Bft) O-NO 60 0 min 0,000 mm 1,0 UV-I 265 W/m 8,3 C 10,2 C 0,0 km/h (0 Bft) 0,00 %
05.10.2015 11:41 10,4 C 87 % 1017,7 hPa 0,0 l/m 0,0 km/h (0 Bft) O-NO 65 0 min 0,000 mm 1,0 UV-I 290 W/m 8,3 C 10,4 C 0,0 km/h (0 Bft) 0,00 %
05.10.2015 11:46 10,6 C 87 % 1017,8 hPa 0,0 l/m 2,2 km/h (1 Bft) O-NO 66 0 min 0,000 mm 1,0 UV-I 292 W/m 8,5 C 10,6 C 4,0 km/h (1 Bft) 0,00 %
05.10.2015 11:51 10,8 C 86 % 1017,7 hPa 0,0 l/m 0,0 km/h (0 Bft) O 91 5 min 0,000 mm 2,0 UV-I 340 W/m 8,6 C 10,8 C 0,0 km/h (0 Bft) 0,00 %
05.10.2015 11:56 11,0 C 83 % 1017,7 hPa 0,0 l/m 0,0 km/h (0 Bft) O-NO 65 0 min 0,000 mm 1,0 UV-I 313 W/m 8,2 C 11,0 C 0,0 km/h (0 Bft) 0,00 %
05.10.2015 12:01 11,1 C 84 % 1017,8 hPa 0,0 l/m 0,0 km/h (0 Bft) N 8 0 min 0,000 mm 1,0 UV-I 319 W/m 8,5 C 11,1 C 0,0 km/h (0 Bft) 0,00 %
05.10.2015 12:06 10,9 C 84 % 1017,7 hPa 0,0 l/m 0,0 km/h (0 Bft) NO 47 0 min 0,000 mm 1,0 UV-I 315 W/m 8,3 C 10,9 C 0,0 km/h (0 Bft) 0,00 %
05.10.2015 12:11 10,9 C 83 % 1017,6 hPa 0,0 l/m 0,4 km/h (0 Bft) NO 34 5 min 0,000 mm 1,0 UV-I 340 W/m 8,1 C 10,9 C 4,0 km/h (1 Bft) 0,00 %
05.10.2015 12:16 11,0 C 84 % 1017,5 hPa 0,0 l/m 0,4 km/h (0 Bft) O 81 5 min 0,000 mm 2,0 UV-I 383 W/m 8,4 C 11,0 C 4,0 km/h (1 Bft) 0,00 %
05.10.2015 12:21 11,1 C 83 % 1017,4 hPa 0,0 l/m 0,0 km/h (0 Bft) NO 52 5 min 0,000 mm 2,0 UV-I 368 W/m 8,3 C 11,1 C 0,0 km/h (0 Bft) 0,00 %
05.10.2015 12:26 11,4 C 83 % 1017,4 hPa 0,0 l/m 0,0 km/h (0 Bft) O-NO 69 5 min 0,000 mm 2,0 UV-I 368 W/m 8,6 C 11,4 C 0,0 km/h (0 Bft) 0,00 %
05.10.2015 12:31 11,7 C 83 % 1017,6 hPa 0,0 l/m 0,0 km/h (0 Bft) O-NO 61 5 min 0,000 mm 2,0 UV-I 374 W/m 8,9 C 11,7 C 0,0 km/h (0 Bft) 0,00 %
05.10.2015 12:36 11,8 C 80 % 1017,5 hPa 0,0 l/m 0,0 km/h (0 Bft) NO 51 5 min 0,000 mm 2,0 UV-I 356 W/m 8,5 C 11,8 C 0,0 km/h (0 Bft) 0,00 %
05.10.2015 12:41 11,8 C 81 % 1017,5 hPa 0,0 l/m 0,0 km/h (0 Bft) NO 36 5 min 0,000 mm 2,0 UV-I 371 W/m 8,6 C 11,8 C 0,0 km/h (0 Bft) 0,00 %
05.10.2015 12:46 11,7 C 81 % 1017,3 hPa 0,0 l/m 0,0 km/h (0 Bft) NO 54 5 min 0,000 mm 2,0 UV-I 478 W/m 8,5 C 11,7 C 0,0 km/h (0 Bft) 0,00 %
05.10.2015 12:51 12,0 C 80 % 1017,1 hPa 0,0 l/m 0,0 km/h (0 Bft) O-NO 57 5 min 0,000 mm 2,0 UV-I 532 W/m 8,7 C 12,0 C 0,0 km/h (0 Bft) 0,00 %
05.10.2015 12:56 12,1 C 80 % 1017,3 hPa 0,0 l/m 0,0 km/h (0 Bft) NO 36 5 min 0,000 mm 2,0 UV-I 688 W/m 8,8 C 12,1 C 0,0 km/h (0 Bft) 0,00 %
05.10.2015 13:01 12,0 C 81 % 1017,3 hPa 0,0 l/m 0,0 km/h (0 Bft) O 90 0 min 0,000 mm 2,0 UV-I 326 W/m 8,8 C 12,0 C 0,0 km/h (0 Bft) 0,00 %
05.10.2015 13:06 12,1 C 80 % 1017,2 hPa 0,0 l/m 0,0 km/h (0 Bft) NO 53 5 min 0,000 mm 2,0 UV-I 547 W/m 8,8 C 12,1 C 0,0 km/h (0 Bft) 0,00 %
05.10.2015 13:11 12,3 C 79 % 1017,2 hPa 0,0 l/m 0,0 km/h (0 Bft) NO 42 5 min 0,000 mm 2,0 UV-I 581 W/m 8,8 C 12,3 C 0,0 km/h (0 Bft) 0,00 %
05.10.2015 13:16 12,4 C 78 % 1017,2 hPa 0,0 l/m 0,0 km/h (0 Bft) NO 40 5 min 0,000 mm 2,0 UV-I 671 W/m 8,7 C 12,4 C 0,0 km/h (0 Bft) 0,00 %
05.10.2015 13:21 12,5 C 77 % 1017,3 hPa 0,0 l/m 0,0 km/h (0 Bft) NO 48 5 min 0,000 mm 2,0 UV-I 666 W/m 8,6 C 12,5 C 0,0 km/h (0 Bft) 0,00 %
05.10.2015 13:26 12,7 C 76 % 1017,1 hPa 0,0 l/m 0,0 km/h (0 Bft) N-NW 346 5 min 0,000 mm 2,0 UV-I 673 W/m 8,6 C 12,7 C 0,0 km/h (0 Bft) 0,00 %
05.10.2015 13:31 13,0 C 74 % 1017,1 hPa 0,0 l/m 0,0 km/h (0 Bft) O-NO 66 5 min 0,000 mm 1,0 UV-I 685 W/m 8,5 C 13,0 C 0,0 km/h (0 Bft) 0,00 %
05.10.2015 13:36 13,4 C 73 % 1016,9 hPa 0,0 l/m 0,0 km/h (0 Bft) O 80 5 min 0,000 mm 1,0 UV-I 687 W/m 8,7 C 13,4 C 0,0 km/h (0 Bft) 0,00 %
05.10.2015 13:41 14,0 C 70 % 1016,9 hPa 0,0 l/m 0,0 km/h (0 Bft) NO 55 5 min 0,000 mm 1,0 UV-I 672 W/m 8,6 C 14,0 C 0,0 km/h (0 Bft) 0,00 %
05.10.2015 13:46 14,2 C 70 % 1016,6 hPa 0,0 l/m 1,4 km/h (1 Bft) N 349 5 min 0,000 mm 1,0 UV-I 703 W/m 8,8 C 14,2 C 4,0 km/h (1 Bft) 0,00 %
05.10.2015 13:51 14,2 C 71 % 1016,9 hPa 0,0 l/m 0,0 km/h (0 Bft) O 81 5 min 0,000 mm 1,0 UV-I 705 W/m 9,0 C 14,2 C 0,0 km/h (0 Bft) 0,00 %
05.10.2015 13:56 14,6 C 66 % 1016,8 hPa 0,0 l/m 0,0 km/h (0 Bft) O 81 5 min 0,000 mm 1,0 UV-I 709 W/m 8,3 C 14,6 C 0,0 km/h (0 Bft) 0,00 %
05.10.2015 14:01 15,0 C 67 % 1016,5 hPa 0,0 l/m 0,4 km/h (0 Bft) S 189 5 min 0,000 mm 1,0 UV-I 731 W/m 8,9 C 15,0 C 4,0 km/h (1 Bft) 0,00 %
05.10.2015 14:06 15,3 C 63 % 1016,4 hPa 0,0 l/m 6,8 km/h (2 Bft) O-SO 118 5 min 0,000 mm 1,0 UV-I 735 W/m 8,3 C 15,1 C 7,9 km/h (2 Bft) 0,00 %
05.10.2015 14:11 15,5 C 63 % 1016,4 hPa 0,0 l/m 0,0 km/h (0 Bft) S 176 5 min 0,000 mm 1,0 UV-I 738 W/m 8,5 C 15,5 C 0,0 km/h (0 Bft) 0,00 %
05.10.2015 14:16 15,9 C 60 % 1016,4 hPa 0,0 l/m 0,0 km/h (0 Bft) O-NO 72 5 min 0,000 mm 1,0 UV-I 748 W/m 8,1 C 15,9 C 0,0 km/h (0 Bft) 0,00 %
05.10.2015 14:21 16,3 C 59 % 1016,2 hPa 0,0 l/m 0,0 km/h (0 Bft) O 81 5 min 0,000 mm 1,0 UV-I 744 W/m 8,3 C 16,3 C 0,0 km/h (0 Bft) 0,00 %
05.10.2015 14:26 16,7 C 57 % 1016,0 hPa 0,0 l/m 0,0 km/h (0 Bft) O 84 5 min 0,000 mm 1,0 UV-I 752 W/m 8,1 C 16,7 C 0,0 km/h (0 Bft) 0,00 %
05.10.2015 14:31 16,6 C 61 % 1016,0 hPa 0,0 l/m 0,7 km/h (0 Bft) NO 48 5 min 0,000 mm 1,0 UV-I 739 W/m 9,0 C 16,6 C 4,0 km/h (1 Bft) 0,00 %
05.10.2015 14:36 15,9 C 62 % 1016,0 hPa 0,0 l/m 2,2 km/h (1 Bft) O-NO 77 5 min 0,000 mm 1,0 UV-I 743 W/m 8,6 C 15,9 C 4,0 km/h (1 Bft) 0,00 %
05.10.2015 14:41 15,5 C 62 % 1015,8 hPa 0,0 l/m 0,0 km/h (0 Bft) N-NO 19 5 min 0,000 mm 1,0 UV-I 745 W/m 8,3 C 15,5 C 0,0 km/h (0 Bft) 0,00 %
05.10.2015 14:46 15,7 C 59 % 1015,6 hPa 0,0 l/m 0,0 km/h (0 Bft) O 88 5 min 0,000 mm 1,0 UV-I 749 W/m 7,7 C 15,7 C 0,0 km/h (0 Bft) 0,00 %
05.10.2015 14:51 16,1 C 59 % 1015,5 hPa 0,0 l/m 0,0 km/h (0 Bft) NO 53 5 min 0,000 mm 1,0 UV-I 764 W/m 8,1 C 16,1 C 0,0 km/h (0 Bft) 0,00 %
05.10.2015 14:56 16,3 C 58 % 1015,5 hPa 0,0 l/m 0,0 km/h (0 Bft) O-SO 104 5 min 0,000 mm 1,0 UV-I 760 W/m 8,0 C 16,3 C 0,0 km/h (0 Bft) 0,00 %
05.10.2015 15:01 16,8 C 57 % 1015,5 hPa 0,0 l/m 0,0 km/h (0 Bft) O 93 5 min 0,000 mm 1,0 UV-I 763 W/m 8,2 C 16,8 C 0,0 km/h (0 Bft) 0,00 %
05.10.2015 15:06 16,9 C 56 % 1015,3 hPa 0,0 l/m 0,0 km/h (0 Bft) O-NO 66 5 min 0,000 mm 1,0 UV-I 762 W/m 8,1 C 16,9 C 0,0 km/h (0 Bft) 0,00 %
05.10.2015 15:11 16,8 C 58 % 1015,3 hPa 0,0 l/m 0,0 km/h (0 Bft) O-NO 71 5 min 0,000 mm 1,0 UV-I 733 W/m 8,5 C 16,8 C 0,0 km/h (0 Bft) 0,00 %
05.10.2015 15:16 16,9 C 54 % 1015,3 hPa 0,0 l/m 0,0 km/h (0 Bft) O 84 5 min 0,000 mm 1,0 UV-I 541 W/m 7,5 C 16,9 C 0,0 km/h (0 Bft) 0,00 %
05.10.2015 15:21 17,3 C 54 % 1015,2 hPa 0,0 l/m 0,0 km/h (0 Bft) O-NO 60 5 min 0,000 mm 1,0 UV-I 732 W/m 7,9 C 17,3 C 0,0 km/h (0 Bft) 0,00 %
05.10.2015 15:26 17,2 C 55 % 1015,0 hPa 0,0 l/m 0,0 km/h (0 Bft) NO 50 5 min 0,000 mm 1,0 UV-I 745 W/m 8,1 C 17,2 C 0,0 km/h (0 Bft) 0,00 %
05.10.2015 15:31 16,8 C 58 % 1015,1 hPa 0,0 l/m 0,0 km/h (0 Bft) O 87 5 min 0,000 mm 1,0 UV-I 692 W/m 8,5 C 16,8 C 0,0 km/h (0 Bft) 0,00 %
05.10.2015 15:36 16,5 C 58 % 1015,1 hPa 0,0 l/m 0,0 km/h (0 Bft) O-NO 61 5 min 0,000 mm 1,0 UV-I 715 W/m 8,2 C 16,5 C 0,0 km/h (0 Bft) 0,00 %
05.10.2015 15:42 16,6 C 54 % 1015,1 hPa 0,0 l/m 0,0 km/h (0 Bft) N-NO 31 6 min 0,000 mm 1,0 UV-I 721 W/m 7,3 C 16,6 C 0,0 km/h (0 Bft) 0,00 %
05.10.2015 15:47 16,8 C 53 % 1015,1 hPa 0,0 l/m 0,0 km/h (0 Bft) NO 53 5 min 0,000 mm 1,0 UV-I 710 W/m 7,2 C 16,8 C 0,0 km/h (0 Bft) 0,00 %
05.10.2015 15:52 16,6 C 53 % 1014,9 hPa 0,0 l/m 0,4 km/h (0 Bft) O-NO 67 5 min 0,000 mm 1,0 UV-I 633 W/m 7,0 C 16,6 C 4,0 km/h (1 Bft) 0,00 %
05.10.2015 15:57 16,5 C 53 % 1014,9 hPa 0,0 l/m 0,0 km/h (0 Bft) O 97 5 min 0,000 mm 1,0 UV-I 728 W/m 6,9 C 16,5 C 0,0 km/h (0 Bft) 0,00 %
05.10.2015 16:02 16,7 C 52 % 1014,7 hPa 0,0 l/m 3,2 km/h (1 Bft) O 81 5 min 0,000 mm 1,0 UV-I 710 W/m 6,8 C 16,7 C 4,0 km/h (1 Bft) 0,00 %
05.10.2015 16:07 16,9 C 52 % 1014,7 hPa 0,0 l/m 0,0 km/h (0 Bft) NO 50 5 min 0,000 mm 1,0 UV-I 410 W/m 7,0 C 16,9 C 0,0 km/h (0 Bft) 0,00 %
05.10.2015 16:12 16,9 C 50 % 1014,5 hPa 0,0 l/m 0,0 km/h (0 Bft) O-NO 64 5 min 0,000 mm 1,0 UV-I 685 W/m 6,4 C 16,9 C 0,0 km/h (0 Bft) 0,00 %
05.10.2015 16:17 16,7 C 50 % 1014,4 hPa 0,0 l/m 0,7 km/h (0 Bft) O 91 5 min 0,000 mm 1,0 UV-I 471 W/m 6,2 C 16,7 C 4,0 km/h (1 Bft) 0,00 %
05.10.2015 16:22 16,7 C 49 % 1014,6 hPa 0,0 l/m 0,4 km/h (0 Bft) O-NO 74 5 min 0,000 mm 1,0 UV-I 357 W/m 5,9 C 16,7 C 4,0 km/h (1 Bft) 0,00 %
05.10.2015 16:27 16,8 C 50 % 1014,1 hPa 0,0 l/m 5,4 km/h (1 Bft) O 96 5 min 0,000 mm 1,0 UV-I 664 W/m 6,3 C 16,8 C 7,9 km/h (2 Bft) 0,00 %
05.10.2015 16:32 16,7 C 53 % 1014,3 hPa 0,0 l/m 2,2 km/h (1 Bft) O 99 5 min 0,000 mm 1,0 UV-I 659 W/m 7,1 C 16,7 C 4,0 km/h (1 Bft) 0,00 %
05.10.2015 16:37 16,7 C 51 % 1014,2 hPa 0,0 l/m 2,9 km/h (1 Bft) O-NO 67 5 min 0,000 mm 1,0 UV-I 649 W/m 6,5 C 16,7 C 4,0 km/h (1 Bft) 0,00 %
05.10.2015 16:42 16,7 C 51 % 1013,9 hPa 0,0 l/m 0,7 km/h (0 Bft) O-NO 76 5 min 0,000 mm 1,0 UV-I 628 W/m 6,5 C 16,7 C 4,0 km/h (1 Bft) 0,00 %
05.10.2015 16:47 16,5 C 51 % 1014,0 hPa 0,0 l/m 0,0 km/h (0 Bft) NO 43 5 min 0,000 mm 1,0 UV-I 610 W/m 6,3 C 16,5 C 0,0 km/h (0 Bft) 0,00 %
05.10.2015 16:52 16,5 C 53 % 1013,9 hPa 0,0 l/m 1,4 km/h (1 Bft) O 101 5 min 0,000 mm 1,0 UV-I 590 W/m 6,9 C 16,5 C 4,0 km/h (1 Bft) 0,00 %
05.10.2015 16:57 16,6 C 51 % 1013,7 hPa 0,0 l/m 0,0 km/h (0 Bft) O-NO 78 5 min 0,000 mm 1,0 UV-I 576 W/m 6,4 C 16,6 C 0,0 km/h (0 Bft) 0,00 %
05.10.2015 17:02 16,7 C 50 % 1013,9 hPa 0,0 l/m 0,0 km/h (0 Bft) O-NO 61 5 min 0,000 mm 1,0 UV-I 555 W/m 6,2 C 16,7 C 0,0 km/h (0 Bft) 0,00 %
05.10.2015 17:07 16,7 C 50 % 1013,9 hPa 0,0 l/m 0,0 km/h (0 Bft) O 84 5 min 0,000 mm 1,0 UV-I 541 W/m 6,2 C 16,7 C 0,0 km/h (0 Bft) 0,00 %
05.10.2015 17:12 16,8 C 51 % 1013,7 hPa 0,0 l/m 0,0 km/h (0 Bft) O-NO 77 5 min 0,000 mm 1,0 UV-I 531 W/m 6,6 C 16,8 C 0,0 km/h (0 Bft) 0,00 %
05.10.2015 17:17 16,8 C 51 % 1013,9 hPa 0,0 l/m 0,0 km/h (0 Bft) O 93 5 min 0,000 mm 1,0 UV-I 517 W/m 6,6 C 16,8 C 0,0 km/h (0 Bft) 0,00 %
05.10.2015 17:22 17,0 C 50 % 1013,7 hPa 0,0 l/m 0,0 km/h (0 Bft) O 80 5 min 0,000 mm 1,0 UV-I 496 W/m 6,5 C 17,0 C 0,0 km/h (0 Bft) 0,00 %
05.10.2015 17:27 17,2 C 48 % 1013,7 hPa 0,0 l/m 1,4 km/h (1 Bft) O-NO 74 5 min 0,000 mm 0,0 UV-I 478 W/m 6,1 C 17,2 C 4,0 km/h (1 Bft) 0,00 %
05.10.2015 17:32 17,0 C 50 % 1013,7 hPa 0,0 l/m 0,0 km/h (0 Bft) O-NO 69 5 min 0,000 mm 0,0 UV-I 457 W/m 6,5 C 17,0 C 0,0 km/h (0 Bft) 0,00 %
05.10.2015 17:37 16,9 C 51 % 1013,6 hPa 0,0 l/m 0,0 km/h (0 Bft) O-NO 68 5 min 0,000 mm 0,0 UV-I 445 W/m 6,7 C 16,9 C 0,0 km/h (0 Bft) 0,00 %
05.10.2015 17:42 16,9 C 52 % 1013,6 hPa 0,0 l/m 0,0 km/h (0 Bft) O 82 5 min 0,000 mm 0,0 UV-I 405 W/m 7,0 C 16,9 C 0,0 km/h (0 Bft) 0,00 %
05.10.2015 17:47 16,9 C 51 % 1013,5 hPa 0,0 l/m 0,0 km/h (0 Bft) O-SO 103 5 min 0,000 mm 0,0 UV-I 370 W/m 6,7 C 16,9 C 0,0 km/h (0 Bft) 0,00 %
05.10.2015 17:52 16,8 C 51 % 1013,5 hPa 0,0 l/m 0,0 km/h (0 Bft) O-NO 76 5 min 0,000 mm 0,0 UV-I 307 W/m 6,6 C 16,8 C 0,0 km/h (0 Bft) 0,00 %
05.10.2015 17:57 16,7 C 51 % 1013,3 hPa 0,0 l/m 0,0 km/h (0 Bft) O-SO 106 5 min 0,000 mm 0,0 UV-I 296 W/m 6,5 C 16,7 C 0,0 km/h (0 Bft) 0,00 %
05.10.2015 18:02 16,5 C 52 % 1013,1 hPa 0,0 l/m 0,0 km/h (0 Bft) O 95 5 min 0,000 mm 0,0 UV-I 187 W/m 6,6 C 16,5 C 0,0 km/h (0 Bft) 0,00 %
05.10.2015 18:07 16,4 C 51 % 1013,2 hPa 0,0 l/m 0,0 km/h (0 Bft) O 91 5 min 0,000 mm 0,0 UV-I 191 W/m 6,2 C 16,4 C 0,0 km/h (0 Bft) 0,00 %
05.10.2015 18:12 16,2 C 50 % 1013,8 hPa 0,0 l/m 0,0 km/h (0 Bft) O-NO 76 5 min 0,000 mm 0,0 UV-I 87 W/m 5,8 C 16,2 C 0,0 km/h (0 Bft) 0,00 %
05.10.2015 18:17 15,9 C 52 % 1013,8 hPa 0,0 l/m 0,0 km/h (0 Bft) O-SO 117 5 min 0,000 mm 0,0 UV-I 46 W/m 6,1 C 15,9 C 0,0 km/h (0 Bft) 0,00 %
05.10.2015 18:22 15,6 C 52 % 1014,2 hPa 0,0 l/m 0,0 km/h (0 Bft) O 81 5 min 0,000 mm 0,0 UV-I 31 W/m 5,8 C 15,6 C 0,0 km/h (0 Bft) 0,00 %
05.10.2015 18:27 15,3 C 53 % 1014,2 hPa 0,0 l/m 0,0 km/h (0 Bft) O-NO 62 0 min 0,000 mm 0,0 UV-I 17 W/m 5,8 C 15,3 C 0,0 km/h (0 Bft) 0,00 %
05.10.2015 18:32 14,9 C 56 % 1014,2 hPa 0,0 l/m 0,0 km/h (0 Bft) O-NO 68 0 min 0,000 mm 0,0 UV-I 3 W/m 6,2 C 14,9 C 0,0 km/h (0 Bft) 0,00 %
05.10.2015 18:37 14,6 C 58 % 1014,3 hPa 0,0 l/m 0,0 km/h (0 Bft) O-NO 78 0 min 0,000 mm 0,0 UV-I 0 W/m 6,4 C 14,6 C 0,0 km/h (0 Bft) 0,00 %
05.10.2015 18:42 14,2 C 61 % 1014,3 hPa 0,0 l/m 0,0 km/h (0 Bft) O-NO 72 0 min 0,000 mm 0,0 UV-I 0 W/m 6,8 C 14,2 C 0,0 km/h (0 Bft) 0,00 %
05.10.2015 18:47 13,8 C 61 % 1014,1 hPa 0,0 l/m 0,0 km/h (0 Bft) O-NO 74 0 min 0,000 mm 0,0 UV-I 0 W/m 6,4 C 13,8 C 0,0 km/h (0 Bft) 0,00 %
05.10.2015 18:52 13,4 C 63 % 1014,3 hPa 0,0 l/m 0,0 km/h (0 Bft) O-NO 74 0 min 0,000 mm 0,0 UV-I 0 W/m 6,5 C 13,4 C 0,0 km/h (0 Bft) 0,00 %
05.10.2015 18:57 13,0 C 65 % 1014,3 hPa 0,0 l/m 0,0 km/h (0 Bft) O-NO 64 0 min 0,000 mm 0,0 UV-I 0 W/m 6,6 C 13,0 C 0,0 km/h (0 Bft) 0,00 %
05.10.2015 19:02 12,8 C 66 % 1014,2 hPa 0,0 l/m 0,0 km/h (0 Bft) O-NO 59 0 min 0,000 mm 0,0 UV-I 0 W/m 6,6 C 12,8 C 0,0 km/h (0 Bft) 0,00 %
05.10.2015 19:07 12,5 C 68 % 1014,4 hPa 0,0 l/m 0,0 km/h (0 Bft) O-NO 63 0 min 0,000 mm 0,0 UV-I 0 W/m 6,8 C 12,5 C 0,0 km/h (0 Bft) 0,00 %
05.10.2015 19:12 11,9 C 69 % 1013,8 hPa 0,0 l/m 0,0 km/h (0 Bft) O-NO 63 0 min 0,000 mm 0,0 UV-I 0 W/m 6,4 C 11,9 C 0,0 km/h (0 Bft) 0,00 %
05.10.2015 19:17 11,6 C 69 % 1014,1 hPa 0,0 l/m 0,0 km/h (0 Bft) O-NO 63 0 min 0,000 mm 0,0 UV-I 0 W/m 6,1 C 11,6 C 0,0 km/h (0 Bft) 0,00 %
05.10.2015 19:22 11,6 C 70 % 1014,0 hPa 0,0 l/m 0,0 km/h (0 Bft) O 93 0 min 0,000 mm 0,0 UV-I 0 W/m 6,3 C 11,6 C 0,0 km/h (0 Bft) 0,00 %
05.10.2015 19:27 11,5 C 71 % 1014,1 hPa 0,0 l/m 0,0 km/h (0 Bft) O-NO 64 0 min 0,000 mm 0,0 UV-I 0 W/m 6,4 C 11,5 C 0,0 km/h (0 Bft) 0,00 %
05.10.2015 19:32 11,3 C 74 % 1014,0 hPa 0,0 l/m 0,0 km/h (0 Bft) O 82 0 min 0,000 mm 0,0 UV-I 0 W/m 6,8 C 11,3 C 0,0 km/h (0 Bft) 0,00 %
05.10.2015 19:37 11,1 C 76 % 1014,1 hPa 0,0 l/m 0,0 km/h (0 Bft) O 89 0 min 0,000 mm 0,0 UV-I 0 W/m 7,0 C 11,1 C 0,0 km/h (0 Bft) 0,00 %
05.10.2015 19:42 10,8 C 77 % 1014,0 hPa 0,0 l/m 0,0 km/h (0 Bft) O 88 0 min 0,000 mm 0,0 UV-I 0 W/m 6,9 C 10,8 C 0,0 km/h (0 Bft) 0,00 %
05.10.2015 19:47 10,5 C 78 % 1013,8 hPa 0,0 l/m 0,0 km/h (0 Bft) O-NO 69 0 min 0,000 mm 0,0 UV-I 0 W/m 6,8 C 10,5 C 0,0 km/h (0 Bft) 0,00 %
05.10.2015 19:52 10,4 C 78 % 1014,0 hPa 0,0 l/m 0,0 km/h (0 Bft) O-NO 72 0 min 0,000 mm 0,0 UV-I 0 W/m 6,7 C 10,4 C 0,0 km/h (0 Bft) 0,00 %
05.10.2015 19:57 10,5 C 77 % 1013,9 hPa 0,0 l/m 0,0 km/h (0 Bft) O-NO 71 0 min 0,000 mm 0,0 UV-I 0 W/m 6,6 C 10,5 C 0,0 km/h (0 Bft) 0,00 %
05.10.2015 20:02 10,6 C 78 % 1013,8 hPa 0,0 l/m 0,0 km/h (0 Bft) O-NO 72 0 min 0,000 mm 0,0 UV-I 0 W/m 6,9 C 10,6 C 0,0 km/h (0 Bft) 0,00 %
05.10.2015 20:07 10,7 C 79 % 1013,8 hPa 0,0 l/m 0,0 km/h (0 Bft) O 80 0 min 0,000 mm 0,0 UV-I 0 W/m 7,2 C 10,7 C 0,0 km/h (0 Bft) 0,00 %
05.10.2015 20:12 10,8 C 79 % 1013,5 hPa 0,0 l/m 0,0 km/h (0 Bft) O-NO 74 0 min 0,000 mm 0,0 UV-I 0 W/m 7,3 C 10,8 C 0,0 km/h (0 Bft) 0,00 %
05.10.2015 20:17 11,1 C 78 % 1013,7 hPa 0,0 l/m 0,0 km/h (0 Bft) O 91 0 min 0,000 mm 0,0 UV-I 0 W/m 7,4 C 11,1 C 0,0 km/h (0 Bft) 0,00 %
05.10.2015 20:22 11,4 C 78 % 1013,5 hPa 0,0 l/m 0,4 km/h (0 Bft) O-NO 75 0 min 0,000 mm 0,0 UV-I 0 W/m 7,7 C 11,4 C 4,0 km/h (1 Bft) 0,00 %
05.10.2015 20:27 11,5 C 77 % 1013,4 hPa 0,0 l/m 0,0 km/h (0 Bft) O-NO 71 0 min 0,000 mm 0,0 UV-I 0 W/m 7,6 C 11,5 C 0,0 km/h (0 Bft) 0,00 %
05.10.2015 20:32 11,5 C 78 % 1013,4 hPa 0,0 l/m 0,0 km/h (0 Bft) O-NO 62 0 min 0,000 mm 0,0 UV-I 0 W/m 7,8 C 11,5 C 0,0 km/h (0 Bft) 0,00 %
05.10.2015 20:37 11,4 C 78 % 1013,4 hPa 0,0 l/m 0,0 km/h (0 Bft) O-NO 74 0 min 0,000 mm 0,0 UV-I 0 W/m 7,7 C 11,4 C 0,0 km/h (0 Bft) 0,00 %
05.10.2015 20:42 11,3 C 78 % 1013,3 hPa 0,0 l/m 0,0 km/h (0 Bft) O-NO 78 0 min 0,000 mm 0,0 UV-I 0 W/m 7,6 C 11,3 C 0,0 km/h (0 Bft) 0,00 %
05.10.2015 20:47 11,2 C 78 % 1013,2 hPa 0,0 l/m 0,0 km/h (0 Bft) O-NO 65 0 min 0,000 mm 0,0 UV-I 0 W/m 7,5 C 11,2 C 0,0 km/h (0 Bft) 0,00 %
05.10.2015 20:52 11,1 C 79 % 1013,3 hPa 0,0 l/m 0,0 km/h (0 Bft) O 87 0 min 0,000 mm 0,0 UV-I 0 W/m 7,6 C 11,1 C 0,0 km/h (0 Bft) 0,00 %
05.10.2015 20:57 10,9 C 80 % 1013,3 hPa 0,0 l/m 0,0 km/h (0 Bft) O-NO 75 0 min 0,000 mm 0,0 UV-I 0 W/m 7,6 C 10,9 C 0,0 km/h (0 Bft) 0,00 %
05.10.2015 21:02 10,6 C 80 % 1013,2 hPa 0,0 l/m 0,0 km/h (0 Bft) O-NO 67 0 min 0,000 mm 0,0 UV-I 0 W/m 7,3 C 10,6 C 0,0 km/h (0 Bft) 0,00 %
05.10.2015 21:07 10,4 C 82 % 1013,5 hPa 0,0 l/m 0,0 km/h (0 Bft) O-NO 57 0 min 0,000 mm 0,0 UV-I 0 W/m 7,5 C 10,4 C 0,0 km/h (0 Bft) 0,00 %
05.10.2015 21:12 10,3 C 82 % 1013,3 hPa 0,0 l/m 0,0 km/h (0 Bft) O-NO 65 0 min 0,000 mm 0,0 UV-I 0 W/m 7,4 C 10,3 C 0,0 km/h (0 Bft) 0,00 %
05.10.2015 21:17 10,2 C 82 % 1013,6 hPa 0,0 l/m 0,0 km/h (0 Bft) O-NO 73 0 min 0,000 mm 0,0 UV-I 0 W/m 7,3 C 10,2 C 0,0 km/h (0 Bft) 0,00 %
05.10.2015 21:22 9,9 C 83 % 1013,4 hPa 0,0 l/m 0,0 km/h (0 Bft) O-SO 106 0 min 0,000 mm 0,0 UV-I 0 W/m 7,2 C 9,9 C 0,0 km/h (0 Bft) 0,00 %
05.10.2015 21:27 9,6 C 84 % 1013,4 hPa 0,0 l/m 0,0 km/h (0 Bft) S-SO 149 0 min 0,000 mm 0,0 UV-I 0 W/m 7,0 C 9,6 C 0,0 km/h (0 Bft) 0,00 %
05.10.2015 21:32 9,3 C 85 % 1013,6 hPa 0,0 l/m 0,0 km/h (0 Bft) O-NO 70 0 min 0,000 mm 0,0 UV-I 0 W/m 6,9 C 9,3 C 0,0 km/h (0 Bft) 0,00 %
05.10.2015 21:37 9,2 C 85 % 1013,5 hPa 0,0 l/m 0,0 km/h (0 Bft) O-NO 65 0 min 0,000 mm 0,0 UV-I 0 W/m 6,8 C 9,2 C 0,0 km/h (0 Bft) 0,00 %
05.10.2015 21:42 9,0 C 87 % 1013,5 hPa 0,0 l/m 0,0 km/h (0 Bft) O-NO 63 0 min 0,000 mm 0,0 UV-I 0 W/m 7,0 C 9,0 C 0,0 km/h (0 Bft) 0,00 %
05.10.2015 21:47 8,7 C 88 % 1013,5 hPa 0,0 l/m 0,0 km/h (0 Bft) O-NO 78 0 min 0,000 mm 0,0 UV-I 0 W/m 6,8 C 8,7 C 0,0 km/h (0 Bft) 0,00 %
05.10.2015 21:52 8,6 C 89 % 1013,5 hPa 0,0 l/m 0,0 km/h (0 Bft) O 80 0 min 0,000 mm 0,0 UV-I 0 W/m 6,9 C 8,6 C 0,0 km/h (0 Bft) 0,00 %
05.10.2015 21:57 8,6 C 90 % 1013,3 hPa 0,0 l/m 0,0 km/h (0 Bft) O-NO 66 0 min 0,000 mm 0,0 UV-I 0 W/m 7,1 C 8,6 C 0,0 km/h (0 Bft) 0,00 %
05.10.2015 22:02 8,6 C 90 % 1013,3 hPa 0,0 l/m 0,0 km/h (0 Bft) O-NO 70 0 min 0,000 mm 0,0 UV-I 0 W/m 7,1 C 8,6 C 0,0 km/h (0 Bft) 0,00 %
05.10.2015 22:07 8,7 C 91 % 1013,4 hPa 0,0 l/m 0,0 km/h (0 Bft) O-NO 76 0 min 0,000 mm 0,0 UV-I 0 W/m 7,3 C 8,7 C 0,0 km/h (0 Bft) 0,00 %
05.10.2015 22:12 8,7 C 90 % 1013,2 hPa 0,0 l/m 0,0 km/h (0 Bft) O 83 0 min 0,000 mm 0,0 UV-I 0 W/m 7,2 C 8,7 C 0,0 km/h (0 Bft) 0,00 %
05.10.2015 22:17 8,7 C 91 % 1012,9 hPa 0,0 l/m 0,0 km/h (0 Bft) O-NO 63 0 min 0,000 mm 0,0 UV-I 0 W/m 7,3 C 8,7 C 0,0 km/h (0 Bft) 0,00 %
05.10.2015 22:22 8,7 C 91 % 1013,0 hPa 0,0 l/m 0,0 km/h (0 Bft) O-SO 103 0 min 0,000 mm 0,0 UV-I 0 W/m 7,3 C 8,7 C 0,0 km/h (0 Bft) 0,00 %
05.10.2015 22:27 8,7 C 91 % 1013,0 hPa 0,0 l/m 0,0 km/h (0 Bft) O 87 0 min 0,000 mm 0,0 UV-I 0 W/m 7,3 C 8,7 C 0,0 km/h (0 Bft) 0,00 %
05.10.2015 22:32 8,7 C 92 % 1013,0 hPa 0,0 l/m 0,0 km/h (0 Bft) NO 52 0 min 0,000 mm 0,0 UV-I 0 W/m 7,5 C 8,7 C 0,0 km/h (0 Bft) 0,00 %
05.10.2015 22:37 8,7 C 91 % 1012,8 hPa 0,0 l/m 0,0 km/h (0 Bft) O-NO 64 0 min 0,000 mm 0,0 UV-I 0 W/m 7,3 C 8,7 C 0,0 km/h (0 Bft) 0,00 %
05.10.2015 22:42 8,6 C 91 % 1012,7 hPa 0,0 l/m 0,0 km/h (0 Bft) O-NO 67 0 min 0,000 mm 0,0 UV-I 0 W/m 7,2 C 8,6 C 0,0 km/h (0 Bft) 0,00 %
05.10.2015 22:47 8,5 C 92 % 1012,6 hPa 0,0 l/m 0,0 km/h (0 Bft) O-NO 68 0 min 0,000 mm 0,0 UV-I 0 W/m 7,3 C 8,5 C 0,0 km/h (0 Bft) 0,00 %
05.10.2015 22:52 8,6 C 92 % 1012,6 hPa 0,0 l/m 0,0 km/h (0 Bft) O-NO 64 0 min 0,000 mm 0,0 UV-I 0 W/m 7,4 C 8,6 C 0,0 km/h (0 Bft) 0,00 %
05.10.2015 22:57 8,7 C 92 % 1012,6 hPa 0,0 l/m 0,0 km/h (0 Bft) O-NO 70 0 min 0,000 mm 0,0 UV-I 0 W/m 7,5 C 8,7 C 0,0 km/h (0 Bft) 0,00 %
05.10.2015 23:02 8,7 C 92 % 1012,4 hPa 0,0 l/m 0,0 km/h (0 Bft) O 98 0 min 0,000 mm 0,0 UV-I 0 W/m 7,5 C 8,7 C 0,0 km/h (0 Bft) 0,00 %
05.10.2015 23:07 8,8 C 92 % 1012,3 hPa 0,0 l/m 0,0 km/h (0 Bft) O 92 0 min 0,000 mm 0,0 UV-I 0 W/m 7,6 C 8,8 C 0,0 km/h (0 Bft) 0,00 %
05.10.2015 23:12 8,9 C 92 % 1012,0 hPa 0,0 l/m 1,4 km/h (1 Bft) O-NO 78 0 min 0,000 mm 0,0 UV-I 0 W/m 7,7 C 8,9 C 4,0 km/h (1 Bft) 0,00 %
05.10.2015 23:17 9,0 C 93 % 1012,0 hPa 0,0 l/m 0,0 km/h (0 Bft) O-NO 76 0 min 0,000 mm 0,0 UV-I 0 W/m 7,9 C 9,0 C 0,0 km/h (0 Bft) 0,00 %
05.10.2015 23:22 8,9 C 93 % 1012,1 hPa 0,0 l/m 0,0 km/h (0 Bft) O-NO 66 0 min 0,000 mm 0,0 UV-I 0 W/m 7,8 C 8,9 C 0,0 km/h (0 Bft) 0,00 %
05.10.2015 23:27 8,8 C 93 % 1012,1 hPa 0,0 l/m 0,0 km/h (0 Bft) NO 52 0 min 0,000 mm 0,0 UV-I 0 W/m 7,7 C 8,8 C 0,0 km/h (0 Bft) 0,00 %
05.10.2015 23:32 8,6 C 93 % 1012,1 hPa 0,0 l/m 0,0 km/h (0 Bft) NO 49 0 min 0,000 mm 0,0 UV-I 0 W/m 7,5 C 8,6 C 0,0 km/h (0 Bft) 0,00 %
05.10.2015 23:37 8,4 C 93 % 1012,4 hPa 0,0 l/m 0,0 km/h (0 Bft) O-NO 70 0 min 0,000 mm 0,0 UV-I 0 W/m 7,3 C 8,4 C 0,0 km/h (0 Bft) 0,00 %
05.10.2015 23:42 8,3 C 93 % 1012,2 hPa 0,0 l/m 0,0 km/h (0 Bft) O-NO 72 0 min 0,000 mm 0,0 UV-I 0 W/m 7,2 C 8,3 C 0,0 km/h (0 Bft) 0,00 %
05.10.2015 23:47 8,1 C 93 % 1012,1 hPa 0,0 l/m 0,0 km/h (0 Bft) NO 55 0 min 0,000 mm 0,0 UV-I 0 W/m 7,0 C 8,1 C 0,0 km/h (0 Bft) 0,00 %
05.10.2015 23:52 8,1 C 94 % 1011,9 hPa 0,0 l/m 0,0 km/h (0 Bft) O 80 0 min 0,000 mm 0,0 UV-I 0 W/m 7,2 C 8,1 C 0,0 km/h (0 Bft) 0,00 %
05.10.2015 23:57 8,2 C 94 % 1011,9 hPa 0,0 l/m 0,0 km/h (0 Bft) O-NO 66 0 min 0,000 mm 0,0 UV-I 0 W/m 7,3 C 8,2 C 0,0 km/h (0 Bft) 0,00 %
_ Min-Zeit 07:31 17:27 23:52 - 00:01 - - - - - - 07:31 07:31 00:01 00:01
Minimum _ 4,6 C 48 % 1011,9 hPa - 0,0 km/h (0 Bft) - - - - - - 4,5 C 4,6 C 0,0 km/h (0 Bft) 0,00 %
_ Max-Zeit 15:21 02:36 00:21 00:01 14:06 - - 15:42 00:01 11:51 14:51 10:41 15:21 11:06 00:01
Maximum _ 17,3 C 99 % 1018,7 hPa 0,0 l/m 6,8 km/h
O-SO (2 Bft)
- - 6 min 0,000 mm 2,0 UV-I 764 W/m 9,5 C 17,3 C 7,9 km/h
O (2 Bft)
0,00 %
Durchschnitt _ 10,2 C 84 % 1016,3 hPa #0,0 l/m 0,2 km/h (0 Bft) O-NO - #6:16 h #0,000 mm 1,1 UV-I 385 W/m 7,2 C 10,2 C 0,4 km/h (0 Bft) 0,00 %